K9BM Weather Reports


time (UTC)temp
F
wind
direction
speed
knots
gust
knots
rain 1hr
in
rain 24hr
in
rain mn
in
humidity
%
barometer
mb
20260510184005 69 249 1.7 10.4 0.00 0.00 0.00 24 1014.1
20260510183505 69 261 6.1 10.4 0.00 0.00 0.00 26 1014.2
20260510183005 69 251 4.3 10.4 0.00 0.00 0.00 26 1014.3
20260510182505 68 282 0.9 7.8 0.00 0.00 0.00 25 1014.4
20260510182005 68 311 1.7 10.4 0.00 0.00 0.00 25 1014.4
20260510181505 69 284 7.0 10.4 0.00 0.00 0.00 26 1014.5
20260510181005 68 259 2.6 7.0 0.00 0.00 0.00 27 1014.6
20260510175505 68 293 2.6 4.3 0.00 0.00 0.00 28 1014.8
20260510175005 68 128 0.9 4.3 0.00 0.00 0.00 28 1014.8
20260510174505 67 36 0.0 4.3 0.00 0.00 0.00 30 1014.9
20260510174005 66 104 1.7 7.0 0.00 0.00 0.00 31 1015.0
20260510173505 66 283 0.9 7.0 0.00 0.00 0.00 30 1015.1
20260510173005 66 331 2.6 8.7 0.00 0.00 0.00 31 1015.2
20260510171504 65 271 2.6 7.0 0.00 0.00 0.00 33 1015.4
20260510171005 64 186 1.7 2.6 0.00 0.00 0.00 34 1015.4
20260510170004 63 328 1.7 4.3 0.00 0.00 0.00 35 1015.4
20260510165505 63 336 1.7 5.2 0.00 0.00 0.00 36 1015.4
20260510165005 63 332 0.9 5.2 0.00 0.00 0.00 36 1015.5
20260510164505 62 329 0.9 4.3 0.00 0.00 0.00 36 1015.5
20260510164005 62 344 1.7 4.3 0.00 0.00 0.00 38 1015.5
20260510163505 61 350 1.7 5.2 0.00 0.00 0.00 37 1015.5
20260510163005 61 342 2.6 5.2 0.00 0.00 0.00 37 1015.5
20260510162504 61 286 0.9 6.1 0.00 0.00 0.00 37 1015.6
20260510162005 61 276 1.7 6.1 0.00 0.00 0.00 38 1015.6
20260510161505 60 286 1.7 7.0 0.00 0.00 0.00 38 1015.7
20260510161006 60 290 2.6 7.0 0.00 0.00 0.00 39 1015.7
20260510160004 59 287 2.6 7.8 0.00 0.00 0.00 39 1015.8
20260510155504 59 295 5.2 7.8 0.00 0.00 0.00 40 1015.9
20260510155005 58 275 4.3 8.7 0.00 0.00 0.00 41 1016.0
20260510154005 58 282 7.0 8.7 0.00 0.00 0.00 41 1016.1
20260510153505 57 289 5.2 10.4 0.00 0.00 0.00 42 1016.2
20260510153005 57 256 6.1 10.4 0.00 0.00 0.00 43 1016.2
20260510152504 57 284 7.8 10.4 0.00 0.00 0.00 42 1016.3
20260510152005 56 285 7.8 10.4 0.00 0.00 0.00 43 1016.3
20260510151505 56 283 5.2 8.7 0.00 0.00 0.00 44 1016.4
20260510151005 56 271 3.5 7.8 0.00 0.00 0.00 45 1016.4
20260510150005 56 283 3.5 6.1 0.00 0.00 0.00 45 1016.4
20260510145504 55 275 3.5 6.1 0.00 0.00 0.00 47 1016.4
20260510145004 55 285 3.5 6.1 0.00 0.00 0.00 49 1016.5
20260510144504 54 275 1.7 5.2 0.00 0.00 0.00 49 1016.4
20260510144005 54 282 1.7 6.1 0.00 0.00 0.00 50 1016.3
20260510143505 54 285 3.5 7.8 0.00 0.00 0.00 49 1016.3
20260510143005 53 277 3.5 7.8 0.00 0.00 0.00 50 1016.3
20260510142504 53 278 3.5 7.0 0.00 0.00 0.00 50 1016.4
20260510141504 52 265 5.2 8.7 0.00 0.00 0.00 50 1016.4
20260510141005 52 272 6.1 10.4 0.00 0.00 0.00 51 1016.4
20260510140005 51 271 7.8 10.4 0.00 0.00 0.00 52 1016.5
20260510135508 51 246 7.0 8.7 0.00 0.00 0.00 52 1016.5
20260510135005 51 256 7.0 8.7 0.00 0.00 0.00 53 1016.5
20260510134505 50 261 7.0 10.4 0.00 0.00 0.00 53 1016.6
20260510134005 50 260 6.1 10.4 0.00 0.00 0.00 54 1016.6
20260510133505 50 268 6.1 11.3 0.00 0.00 0.00 54 1016.6
20260510133005 50 275 7.8 11.3 0.00 0.00 0.00 54 1016.6
20260510132005 49 257 7.8 10.4 0.00 0.00 0.00 55 1016.7
20260510131504 49 278 7.8 10.4 0.00 0.00 0.00 54 1016.7
20260510131005 49 267 6.1 8.7 0.00 0.00 0.00 55 1016.7
20260510130004 48 272 6.1 7.8 0.00 0.00 0.00 56 1016.8
20260510125504 48 273 6.1 7.0 0.00 0.00 0.00 58 1016.9
20260510125004 47 262 5.2 7.0 0.00 0.00 0.00 59 1016.9
20260510124504 47 254 4.3 7.0 0.00 0.00 0.00 59 1016.9
20260510124005 46 276 4.3 7.0 0.00 0.00 0.00 60 1016.8
20260510123505 46 264 5.2 7.0 0.00 0.00 0.00 61 1016.8
20260510123004 45 283 5.2 7.0 0.00 0.00 0.00 62 1016.9
20260510122504 45 279 5.2 7.0 0.00 0.00 0.00 62 1016.9
20260510122005 44 282 5.2 7.0 0.00 0.00 0.00 62 1016.9
20260510121004 44 288 5.2 7.0 0.00 0.00 0.00 62 1016.8
20260510120004 45 279 5.2 7.0 0.00 0.00 0.00 58 1016.8
20260510115505 45 256 6.1 7.0 0.00 0.00 0.00 58 1016.8
20260510115005 46 269 5.2 7.8 0.00 0.00 0.00 60 1016.7
20260510114505 46 276 5.2 7.8 0.00 0.00 0.00 60 1016.8
20260510114004 46 270 6.1 7.8 0.00 0.00 0.00 61 1016.8
20260510113504 45 269 6.1 7.8 0.00 0.00 0.00 60 1016.8
20260510112005 46 248 7.0 8.7 0.00 0.00 0.00 56 1016.7
20260510111504 46 260 7.0 8.7 0.00 0.00 0.00 55 1016.7
20260510111005 46 247 7.0 8.7 0.00 0.00 0.00 55 1016.7
20260510110005 46 231 4.3 7.0 0.00 0.00 0.00 55 1016.7
20260510105504 46 236 5.2 7.0 0.00 0.00 0.00 55 1016.7
20260510105004 47 232 4.3 6.1 0.00 0.00 0.00 54 1016.6
20260510104504 47 235 5.2 6.1 0.00 0.00 0.00 54 1016.7
20260510103504 47 233 5.2 7.8 0.00 0.00 0.00 53 1016.8
20260510103004 47 233 5.2 7.8 0.00 0.00 0.00 53 1016.8
20260510102505 48 235 5.2 7.8 0.00 0.00 0.00 53 1016.8
20260510102004 48 230 5.2 7.8 0.00 0.00 0.00 53 1016.8
20260510101005 47 234 6.1 7.0 0.00 0.00 0.00 54 1016.7
20260510100005 47 238 4.3 6.1 0.00 0.00 0.00 54 1016.8
20260510095504 47 234 4.3 7.8 0.00 0.00 0.00 54 1016.8
20260510094504 47 232 5.2 8.7 0.00 0.00 0.00 54 1016.7
20260510093504 47 235 6.1 10.4 0.00 0.00 0.00 54 1016.6
20260510092504 47 232 6.1 8.7 0.00 0.00 0.00 55 1016.6
20260510092004 47 231 6.1 10.4 0.00 0.00 0.00 55 1016.5
20260510091504 47 235 7.0 10.4 0.00 0.00 0.00 55 1016.5
20260510091004 47 234 7.0 10.4 0.00 0.00 0.00 54 1016.5
20260510085504 47 233 7.0 10.4 0.00 0.00 0.00 54 1016.4
20260510085005 47 233 7.8 10.4 0.00 0.00 0.00 54 1016.4
20260510084504 47 233 7.0 10.4 0.00 0.00 0.00 55 1016.4
20260510084004 47 232 7.8 10.4 0.00 0.00 0.00 55 1016.3
20260510083505 46 232 7.0 10.4 0.00 0.00 0.00 57 1016.4
20260510082505 46 234 6.1 7.8 0.00 0.00 0.00 58 1016.4
20260510082004 46 231 6.1 7.8 0.00 0.00 0.00 59 1016.3
20260510081504 45 234 5.2 7.8 0.00 0.00 0.00 59 1016.3
20260510081005 46 233 5.2 7.8 0.00 0.00 0.00 59 1016.4
20260510080004 45 243 7.0 10.4 0.00 0.00 0.00 60 1016.3
20260510075505 45 246 7.8 10.4 0.00 0.00 0.00 60 1016.3
20260510075004 45 240 4.3 7.0 0.00 0.00 0.00 60 1016.2
20260510073504 45 251 5.2 7.8 0.00 0.00 0.00 62 1016.2
20260510073005 46 251 5.2 7.8 0.00 0.00 0.00 61 1016.1
20260510072505 46 237 4.3 7.0 0.00 0.00 0.00 59 1016.1
20260510072004 46 231 5.2 7.0 0.00 0.00 0.00 59 1016.1
20260510071504 46 232 5.2 7.0 0.00 0.00 0.00 60 1016.1
20260510071004 46 235 5.2 6.1 0.00 0.00 0.00 61 1016.1
20260510070004 46 240 4.3 7.0 0.00 0.00 0.00 60 1016.1
20260510065504 46 227 4.3 5.2 0.00 0.00 0.00 61 1016.1
20260510065004 45 209 4.3 5.2 0.00 0.00 0.00 63 1016.1
20260510064504 45 204 3.5 6.1 0.00 0.00 0.00 63 1016.1
20260510064004 45 203 4.3 7.0 0.00 0.00 0.00 64 1016.1
20260510063504 45 202 3.5 7.0 0.00 0.00 0.00 64 1016.0
20260510063005 45 199 5.2 7.0 0.00 0.00 0.00 64 1016.0
20260510062505 45 195 6.1 6.1 0.00 0.00 0.00 64 1015.9
20260510062005 45 194 5.2 6.1 0.00 0.00 0.00 64 1016.0
20260510061504 45 197 4.3 5.2 0.00 0.00 0.00 64 1016.0
20260510061004 46 189 3.5 6.1 0.00 0.00 0.00 64 1016.0
20260510060005 46 194 5.2 6.1 0.00 0.00 0.00 64 1015.9
20260510055504 46 199 5.2 6.1 0.00 0.00 0.00 64 1015.9
20260510055005 47 201 4.3 5.2 0.00 0.00 0.00 65 1015.9
20260510054005 48 178 5.2 5.2 0.00 0.00 0.00 65 1015.6
20260510053504 49 150 4.3 4.3 0.00 0.00 0.00 65 1015.5
20260510053005 49 145 2.6 4.3 0.00 0.00 0.00 65 1015.5
20260510052505 49 139 2.6 4.3 0.00 0.00 0.00 64 1015.4
20260510051504 49 139 4.3 4.3 0.00 0.00 0.00 66 1015.4
20260510051005 48 139 2.6 7.0 0.00 0.00 0.00 67 1015.5
20260510050004 47 141 5.2 7.0 0.00 0.00 0.00 69 1015.4
20260510045504 47 139 5.2 7.8 0.00 0.00 0.00 67 1015.4
20260510045005 48 128 6.1 7.8 0.00 0.00 0.00 66 1015.4
20260510044005 49 116 6.1 6.1 0.00 0.00 0.00 66 1015.5
20260510043505 49 115 6.1 6.1 0.00 0.00 0.00 66 1015.5
20260510043005 49 114 6.1 6.1 0.00 0.00 0.00 66 1015.5
20260510042005 49 108 6.1 6.1 0.00 0.00 0.00 66 1015.5
20260510041504 49 108 5.2 6.1 0.00 0.00 0.00 66 1015.4
20260510041005 49 108 5.2 6.1 0.00 0.00 0.00 66 1015.3
20260510040004 49 113 5.2 7.0 0.00 0.00 0.00 65 1015.2
20260510035004 50 120 6.1 7.8 0.00 0.00 0.00 64 1015.0
20260510034504 50 124 6.1 7.8 0.00 0.00 0.00 64 1014.9
20260510034005 50 129 7.0 8.7 0.00 0.00 0.00 63 1014.9
20260510033505 50 132 7.8 8.7 0.00 0.00 0.00 63 1014.7
20260510033004 51 131 7.8 8.7 0.00 0.00 0.00 62 1014.7
20260510032504 51 129 7.0 7.8 0.00 0.00 0.00 61 1014.7
20260510032004 52 126 7.0 7.8 0.00 0.00 0.00 60 1014.7
20260510031504 53 125 6.1 7.8 0.00 0.00 0.00 59 1014.6
20260510031004 53 121 7.0 7.8 0.00 0.00 0.00 58 1014.5
20260510030004 54 127 7.0 8.7 0.00 0.00 0.00 57 1014.4
20260510025504 55 127 7.0 8.7 0.00 0.00 0.00 56 1014.3
20260510025005 55 124 7.0 8.7 0.00 0.00 0.00 55 1014.3
20260510024504 55 119 7.0 7.8 0.00 0.00 0.00 54 1014.3
20260510023504 56 107 6.1 8.7 0.00 0.00 0.00 52 1014.2
20260510023004 57 102 6.1 8.7 0.00 0.00 0.00 51 1014.1
20260510022504 57 97 6.1 8.7 0.00 0.00 0.00 50 1014.0
20260510021505 57 85 6.1 10.4 0.00 0.00 0.00 49 1013.9
20260510021004 58 85 7.0 10.4 0.00 0.00 0.00 49 1013.8
20260510020004 58 77 7.0 10.4 0.00 0.00 0.00 47 1013.8
20260510015504 58 75 5.2 8.7 0.00 0.00 0.00 46 1013.9
20260510015004 59 57 5.2 8.7 0.00 0.00 0.00 44 1013.9
20260510014504 59 60 4.3 8.7 0.00 0.00 0.00 42 1013.8
20260510014004 59 24 4.3 8.7 0.00 0.00 0.00 40 1013.8
20260510013504 60 18 2.6 5.2 0.00 0.00 0.00 38 1013.7
20260510013004 60 28 2.6 7.8 0.00 0.00 0.00 38 1013.6
20260510012505 60 31 4.3 7.8 0.00 0.00 0.00 37 1013.4
20260510012005 60 24 3.5 10.4 0.00 0.00 0.00 36 1013.3
20260510011504 60 26 5.2 10.4 0.00 0.00 0.00 36 1013.2
20260510011004 61 340 6.1 8.7 0.00 0.00 0.00 35 1013.2
20260510010005 61 291 5.2 8.7 0.00 0.00 0.00 33 1013.2
20260510005504 61 289 5.2 7.8 0.00 0.00 0.00 32 1013.2
20260510005004 61 285 4.3 10.4 0.00 0.00 0.00 33 1013.2
20260510004504 62 302 6.1 10.4 0.00 0.00 0.00 31 1013.3
20260510004004 62 294 7.0 10.4 0.00 0.00 0.00 31 1013.2
20260510003504 63 304 3.5 8.7 0.00 0.00 0.00 31 1013.2
20260510002504 64 312 6.1 10.4 0.00 0.00 0.00 32 1013.0
20260510002004 64 246 6.1 10.4 0.00 0.00 0.00 30 1013.0
20260510001004 63 317 2.6 11.3 0.00 0.00 0.00 31 1013.0
20260510000004 63 252 7.8 13.0 0.00 0.00 0.00 32 1013.0
20260509235504 63 284 6.1 11.3 0.00 0.00 0.00 31 1013.0
20260509235004 63 271 6.1 10.4 0.00 0.00 0.00 32 1013.0
20260509234504 63 302 6.1 10.4 0.00 0.00 0.00 33 1013.0
20260509234005 62 296 5.2 10.4 0.00 0.00 0.00 33 1013.0
20260509233505 62 313 4.3 10.4 0.00 0.00 0.00 32 1013.1
20260509233005 62 294 6.1 10.4 0.00 0.00 0.00 34 1013.1
20260509231505 62 297 6.1 10.4 0.00 0.00 0.00 33 1013.0
20260509231005 62 304 5.2 10.4 0.00 0.00 0.00 33 1013.1
20260509230005 61 280 5.2 10.4 0.00 0.00 0.00 33 1013.0
20260509225505 61 247 7.0 12.2 0.00 0.00 0.00 33 1013.0
20260509224505 61 273 7.8 12.2 0.00 0.00 0.00 34 1013.1
20260509223505 62 302 7.0 12.2 0.00 0.00 0.00 33 1013.1
20260509223006 62 299 7.8 12.2 0.00 0.00 0.00 33 1013.1
20260509222505 61 322 6.1 12.2 0.00 0.00 0.00 35 1013.1
20260509222005 61 316 5.2 11.3 0.00 0.00 0.00 35 1013.1
20260509221006 63 321 8.7 15.6 0.00 0.00 0.00 34 1013.1
20260509215505 63 269 8.7 20.0 0.00 0.00 0.00 32 1012.8
20260509215005 63 304 12.2 20.0 0.00 0.00 0.00 31 1012.8
20260509214505 63 307 10.4 17.4 0.00 0.00 0.00 30 1012.8
20260509214005 63 290 13.0 17.4 0.00 0.00 0.00 33 1012.7
20260509213006 62 292 13.9 19.1 0.00 0.00 0.00 32 1012.7
20260509212505 63 291 11.3 17.4 0.00 0.00 0.00 32 1012.7
20260509212005 62 287 11.3 21.7 0.00 0.00 0.00 32 1012.7
20260509211005 61 297 8.7 17.4 0.00 0.00 0.00 34 1012.7
20260509210005 60 273 11.3 17.4 0.00 0.00 0.00 34 1012.6
20260509205005 61 302 10.4 14.8 0.00 0.00 0.00 33 1012.6
20260509204505 61 310 9.6 17.4 0.00 0.00 0.00 33 1012.6
20260509204005 61 273 9.6 17.4 0.00 0.00 0.00 34 1012.6
20260509203505 61 282 11.3 20.9 0.00 0.00 0.00 33 1012.7
20260509203005 60 296 10.4 20.9 0.00 0.00 0.00 35 1012.7
20260509202505 61 283 11.3 18.2 0.00 0.00 0.00 34 1012.7
20260509201505 60 299 10.4 15.6 0.00 0.00 0.00 35 1012.6
20260509201005 60 291 8.7 15.6 0.00 0.00 0.00 33 1012.7
20260509200005 61 304 10.4 14.8 0.00 0.00 0.00 35 1012.5
20260509195505 60 305 10.4 14.8 0.00 0.00 0.00 36 1012.5
20260509195005 60 314 10.4 17.4 0.00 0.00 0.00 35 1012.5
20260509194505 59 311 7.8 19.1 0.00 0.00 0.00 37 1012.5
20260509194005 59 320 9.6 19.1 0.00 0.00 0.00 37 1012.6
20260509193505 59 315 11.3 17.4 0.00 0.00 0.00 36 1012.5
20260509193005 59 312 10.4 15.6 0.00 0.00 0.00 36 1012.4
20260509192505 59 305 11.3 15.6 0.00 0.00 0.00 36 1012.4
20260509192005 59 310 13.0 15.6 0.00 0.00 0.00 36 1012.3
20260509191505 59 290 9.6 19.1 0.00 0.00 0.00 36 1012.3
20260509190006 60 285 13.0 18.2 0.00 0.00 0.00 34 1012.2
20260509185505 60 309 9.6 17.4 0.00 0.00 0.00 33 1012.1
20260509185005 61 281 12.2 18.2 0.00 0.00 0.00 34 1012.1
20260509184505 60 275 13.9 20.9 0.00 0.00 0.00 31 1012.0